QPF
0.00 0.01 0.02 0.02 0.01 0.01 0.01 0.02 0.01 0.00 0.00 0.00 0.01 0.02 0.01 0.00 0.00 0.00 0.00 0.00 0.00 0.00 0.02 0.01 0.00 0.00 0.00 0.01 0.01 0.02 0.02 0.02 0.03 0.04 0.06 0.08 0.13 0.14 0.13 0.12 0.12 0.07 0.07 0.08
0.01 0.02 0.01 0.01 0.00 0.00 0.00 0.01 0.00 0.00 0.00 0.00 0.00 0.01 0.00 0.00 0.00 0.00 0.00 0.00 0.01 0.00 0.00 0.00 0.00 0.00 0.00 0.01 0.01 0.02 0.03 0.03 0.02 0.04 0.05 0.06 0.08 0.08 0.09 0.11 0.11 0.08 0.07 0.07
0.01 0.01 0.00 0.00 0.00 0.00 0.00 0.00 0.00 0.00 0.00 0.00 0.00 0.01 0.01 0.00 0.00 0.00 0.00 0.00 0.01 0.01 0.00 0.01 0.01 0.01 0.01 0.01 0.02 0.04 0.04 0.03 0.04 0.04 0.03 0.03 0.05 0.06 0.06 0.09 0.10 0.08 0.06 0.05
0.01 0.00 0.00 0.00 0.00 0.00 0.00 0.00 0.00 0.00 0.00 0.01 0.00 0.02 0.01 0.00 0.00 0.00 0.00 0.00 0.00 0.00 0.00 0.00 0.00 0.00 0.00 0.01 0.02 0.03 0.04 0.04 0.04 0.04 0.04 0.04 0.04 0.06 0.07 0.08 0.07 0.06 0.06 0.04
0.00 0.00 0.00 0.00 0.00 0.00 0.00 0.00 0.00 0.00 0.00 0.01 0.01 0.03 0.04 0.00 0.00 0.00 0.00 0.00 0.01 0.00 0.00 0.00 0.00 0.00 0.00 0.01 0.01 0.02 0.03 0.04 0.04 0.04 0.05 0.05 0.07 0.07 0.07 0.08 0.08 0.07 0.06 0.05
0.00 0.00 0.00 0.00 0.00 0.00 0.00 0.00 0.00 0.00 0.00 0.01 0.01 0.02 0.02 0.01 0.01 0.00 0.00 0.00 0.00 0.00 0.00 0.00 0.00 0.00 0.01 0.01 0.00 0.01 0.02 0.03 0.03 0.04 0.04 0.05 0.07 0.07 0.07 0.08 0.07 0.06 0.06 0.05
0.00 0.00 0.00 0.00 0.00 0.00 0.00 0.01 0.01 0.01 0.01 0.02 0.01 0.01 0.01 0.01 0.01 0.01 0.01 0.01 0.02 0.00 0.00 0.00 0.00 0.01 0.01 0.01 0.01 0.02 0.02 0.03 0.03 0.04 0.05 0.05 0.06 0.05 0.06 0.06 0.06 0.06 0.05 0.05
0.00 0.00 0.00 0.00 0.00 0.00 0.00 0.00 0.01 0.02 0.01 0.02 0.02 0.01 0.01 0.00 0.01 0.00 0.00 0.02 0.05 0.01 0.01 0.01 0.01 0.01 0.01 0.01 0.01 0.02 0.02 0.03 0.03 0.04 0.04 0.05 0.06 0.05 0.07 0.07 0.04 0.04 0.03 0.03
0.00 0.01 0.00 0.00 0.00 0.00 0.00 0.00 0.00 0.00 0.01 0.02 0.02 0.02 0.01 0.00 0.00 0.01 0.00 0.01 0.03 0.02 0.01 0.01 0.01 0.01 0.01 0.01 0.01 0.01 0.02 0.02 0.03 0.04 0.04 0.04 0.05 0.05 0.06 0.06 0.04 0.03 0.04 0.04
0.00 0.01 0.01 0.00 0.00 0.00 0.00 0.00 0.00 0.01 0.02 0.03 0.03 0.04 0.02 0.01 0.01 0.00 0.00 0.01 0.02 0.02 0.02 0.01 0.01 0.01 0.01 0.00 0.01 0.01 0.01 0.02 0.03 0.04 0.04 0.04 0.05 0.04 0.05 0.05 0.05 0.04 0.04 0.04
0.00 0.01 0.01 0.00 0.00 0.00 0.00 0.00 0.00 0.01 0.01 0.02 0.03 0.03 0.02 0.01 0.02 0.02 0.02 0.03 0.03 0.02 0.01 0.01 0.01 0.00 0.00 0.00 0.01 0.02 0.03 0.02 0.03 0.03 0.04 0.04 0.04 0.04 0.04 0.04 0.05 0.04 0.03 0.04
0.00 0.00 0.01 0.01 0.01 0.00 0.00 0.00 0.00 0.01 0.01 0.01 0.02 0.02 0.01 0.00 0.00 0.01 0.01 0.01 0.01 0.01 0.01 0.01 0.01 0.01 0.01 0.01 0.01 0.01 0.01 0.02 0.03 0.03 0.03 0.02 0.02 0.03 0.03 0.03 0.04 0.04 0.03 0.03
0.00 0.00 0.01 0.02 0.02 0.00 0.00 0.00 0.00 0.00 0.00 0.01 0.01 0.02 0.01 0.00 0.00 0.01 0.03 0.04 0.03 0.01 0.00 0.00 0.01 0.02 0.02 0.03 0.02 0.01 0.01 0.01 0.01 0.02 0.02 0.01 0.01 0.01 0.02 0.03 0.04 0.04 0.03 0.04
0.00 0.00 0.00 0.02 0.03 0.01 0.00 0.00 0.00 0.00 0.00 0.01 0.02 0.02 0.02 0.02 0.01 0.02 0.04 0.05 0.05 0.01 0.00 0.00 0.00 0.01 0.02 0.02 0.02 0.03 0.02 0.01 0.01 0.02 0.03 0.03 0.03 0.04 0.04 0.04 0.03 0.03 0.04 0.04
0.00 0.00 0.00 0.00 0.00 0.00 0.00 0.00 0.00 0.00 0.00 0.01 0.03 0.02 0.01 0.02 0.02 0.03 0.04 0.04 0.02 0.01 0.01 0.01 0.01 0.01 0.02 0.01 0.02 0.02 0.03 0.02 0.03 0.03 0.04 0.04 0.04 0.04 0.04 0.04 0.03 0.04 0.04 0.03
0.00 0.00 0.00 0.00 0.00 0.00 0.00 0.00 0.00 0.00 0.00 0.01 0.02 0.02 0.01 0.01 0.02 0.02 0.03 0.03 0.01 0.01 0.01 0.01 0.01 0.01 0.01 0.01 0.01 0.02 0.03 0.03 0.02 0.02 0.02 0.02 0.02 0.03 0.03 0.03 0.03 0.03 0.03 0.03
0.00 0.00 0.00 0.00 0.00 0.00 0.00 0.01 0.01 0.01 0.00 0.00 0.01 0.02 0.02 0.02 0.01 0.01 0.01 0.01 0.00 0.00 0.00 0.00 0.00 0.00 0.01 0.01 0.01 0.01 0.01 0.02 0.02 0.02 0.03 0.02 0.01 0.02 0.03 0.03 0.04 0.04 0.04 0.04
0.00 0.00 0.00 0.00 0.01 0.01 0.01 0.00 0.00 0.00 0.00 0.00 0.00 0.01 0.01 0.02 0.01 0.01 0.01 0.01 0.00 0.00 0.00 0.00 0.00 0.01 0.01 0.01 0.01 0.01 0.01 0.01 0.01 0.01 0.02 0.02 0.02 0.02 0.03 0.04 0.05 0.04 0.04 0.05
0.00 0.00 0.00 0.00 0.01 0.01 0.01 0.00 0.00 0.01 0.00 0.00 0.00 0.00 0.01 0.02 0.02 0.03 0.02 0.01 0.00 0.00 0.00 0.00 0.00 0.01 0.02 0.02 0.02 0.02 0.01 0.01 0.01 0.01 0.00 0.01 0.01 0.02 0.02 0.03 0.03 0.04 0.04 0.04
0.00 0.00 0.00 0.00 0.01 0.01 0.01 0.01 0.01 0.01 0.01 0.00 0.00 0.00 0.01 0.02 0.05 0.07 0.06 0.02 0.00 0.00 0.00 0.00 0.01 0.01 0.01 0.01 0.02 0.02 0.02 0.02 0.02 0.02 0.01 0.01 0.01 0.01 0.02 0.03 0.03 0.04 0.05 0.05
0.00 0.01 0.01 0.01 0.01 0.00 0.01 0.02 0.01 0.02 0.02 0.00 0.00 0.00 0.01 0.03 0.02 0.02 0.02 0.01 0.00 0.00 0.00 0.01 0.01 0.01 0.01 0.01 0.02 0.02 0.03 0.03 0.04 0.04 0.04 0.03 0.02 0.02 0.02 0.02 0.03 0.03 0.04 0.05
0.00 0.01 0.02 0.02 0.02 0.02 0.00 0.01 0.02 0.02 0.01 0.01 0.01 0.01 0.00 0.00 0.00 0.00 0.00 0.00 0.00 0.01 0.01 0.01 0.00 0.01 0.01 0.01 0.01 0.02 0.03 0.04 0.05 0.05 0.05 0.05 0.03 0.02 0.01 0.02 0.03 0.03 0.04 0.04
0.01 0.01 0.02 0.02 0.02 0.02 0.01 0.02 0.02 0.03 0.03 0.02 0.01 0.01 0.01 0.01 0.00 0.01 0.01 0.01 0.01 0.01 0.01 0.01 0.01 0.01 0.01 0.01 0.01 0.02 0.03 0.03 0.03 0.03 0.05 0.05 0.04 0.03 0.03 0.02 0.03 0.04 0.05 0.04
0.02 0.02 0.03 0.03 0.02 0.02 0.02 0.03 0.02 0.03 0.03 0.02 0.01 0.00 0.00 0.00 0.01 0.01 0.01 0.02 0.01 0.01 0.01 0.01 0.01 0.01 0.01 0.01 0.02 0.02 0.02 0.03 0.02 0.02 0.03 0.03 0.03 0.03 0.03 0.03 0.03 0.03 0.04 0.04
0.02 0.04 0.03 0.03 0.03 0.02 0.02 0.03 0.03 0.02 0.02 0.01 0.00 0.00 0.00 0.00 0.01 0.01 0.02 0.03 0.03 0.01 0.01 0.01 0.01 0.01 0.01 0.01 0.02 0.03 0.03 0.03 0.03 0.03 0.03 0.03 0.02 0.02 0.03 0.03 0.02 0.02 0.03 0.03
0.02 0.05 0.05 0.05 0.04 0.02 0.02 0.02 0.04 0.03 0.02 0.01 0.00 0.01 0.00 0.00 0.00 0.01 0.02 0.03 0.03 0.02 0.01 0.01 0.01 0.01 0.01 0.01 0.02 0.02 0.02 0.03 0.03 0.03 0.03 0.02 0.02 0.02 0.02 0.03 0.03 0.03 0.03 0.02
MSLP
1007.48 1007.99 1008.26 1008.32 1008.22 1008.03 1007.83 1007.66 1007.53 1007.41 1007.27 1007.07 1006.76 1006.33 1005.81 1005.25 1004.70 1004.24 1003.93 1003.79 1003.83 1004.03 1004.36 1004.77 1005.21 1005.68 1006.15 1006.64 1007.16 1007.72 1008.31 1008.92 1009.51 1010.05 1010.48 1010.79 1010.96 1011.01 1010.98 1010.91 1010.86 1010.88 1011.00 1011.22
1007.55 1007.86 1007.95 1007.87 1007.71 1007.55 1007.45 1007.44 1007.49 1007.55 1007.55 1007.42 1007.10 1006.60 1005.94 1005.20 1004.47 1003.83 1003.37 1003.13 1003.11 1003.29 1003.62 1004.04 1004.50 1004.98 1005.46 1005.95 1006.48 1007.06 1007.70 1008.36 1009.02 1009.63 1010.13 1010.49 1010.68 1010.72 1010.65 1010.53 1010.42 1010.38 1010.45 1010.64
1007.37 1007.48 1007.38 1007.19 1007.00 1006.90 1006.94 1007.12 1007.38 1007.64 1007.79 1007.73 1007.42 1006.84 1006.04 1005.12 1004.20 1003.39 1002.79 1002.45 1002.37 1002.53 1002.87 1003.31 1003.79 1004.29 1004.78 1005.28 1005.81 1006.40 1007.06 1007.76 1008.48 1009.15 1009.71 1010.11 1010.33 1010.38 1010.29 1010.13 1009.96 1009.86 1009.87 1010.01
1006.98 1006.89 1006.66 1006.40 1006.22 1006.22 1006.43 1006.82 1007.31 1007.77 1008.05 1008.07 1007.74 1007.07 1006.13 1005.03 1003.91 1002.92 1002.17 1001.72 1001.59 1001.73 1002.07 1002.54 1003.06 1003.58 1004.09 1004.60 1005.14 1005.73 1006.41 1007.14 1007.89 1008.60 1009.21 1009.66 1009.92 1009.98 1009.89 1009.71 1009.50 1009.34 1009.28 1009.36
1006.40 1006.18 1005.86 1005.59 1005.48 1005.62 1006.02 1006.64 1007.34 1007.97 1008.38 1008.44 1008.08 1007.31 1006.21 1004.92 1003.60 1002.43 1001.53 1000.97 1000.76 1000.88 1001.23 1001.73 1002.28 1002.84 1003.38 1003.91 1004.46 1005.07 1005.75 1006.49 1007.26 1008.00 1008.65 1009.14 1009.44 1009.54 1009.47 1009.27 1009.04 1008.83 1008.71 1008.70
1005.69 1005.39 1005.06 1004.84 1004.84 1005.15 1005.76 1006.58 1007.47 1008.25 1008.74 1008.82 1008.40 1007.52 1006.26 1004.78 1003.28 1001.93 1000.88 1000.21 999.93 1000.02 1000.38 1000.90 1001.50 1002.10 1002.68 1003.24 1003.81 1004.42 1005.10 1005.84 1006.62 1007.38 1008.05 1008.58 1008.92 1009.06 1009.01 1008.84 1008.59 1008.35 1008.17 1008.09
1004.86 1004.56 1004.27 1004.15 1004.31 1004.79 1005.59 1006.59 1007.63 1008.51 1009.05 1009.11 1008.64 1007.65 1006.25 1004.62 1002.95 1001.45 1000.28 999.51 999.17 999.22 999.57 1000.12 1000.75 1001.40 1002.02 1002.61 1003.20 1003.82 1004.49 1005.23 1006.00 1006.76 1007.44 1008.00 1008.38 1008.56 1008.56 1008.41 1008.18 1007.93 1007.71 1007.56
1003.94 1003.69 1003.50 1003.51 1003.83 1004.48 1005.44 1006.57 1007.70 1008.63 1009.18 1009.22 1008.69 1007.63 1006.13 1004.40 1002.63 1001.04 999.77 998.94 998.55 998.57 998.92 999.49 1000.15 1000.83 1001.48 1002.10 1002.71 1003.32 1003.98 1004.70 1005.44 1006.18 1006.86 1007.43 1007.84 1008.07 1008.12 1008.02 1007.82 1007.58 1007.34 1007.15
1002.97 1002.79 1002.73 1002.89 1003.35 1004.14 1005.20 1006.40 1007.56 1008.50 1009.03 1009.04 1008.47 1007.37 1005.86 1004.10 1002.31 1000.70 999.42 998.56 998.16 998.17 998.51 999.08 999.76 1000.46 1001.14 1001.77 1002.38 1002.99 1003.62 1004.29 1005.00 1005.70 1006.36 1006.93 1007.36 1007.63 1007.73 1007.69 1007.55 1007.34 1007.11 1006.90
1001.98 1001.90 1001.97 1002.26 1002.84 1003.71 1004.81 1006.01 1007.15 1008.04 1008.53 1008.50 1007.94 1006.86 1005.39 1003.70 1002.00 1000.46 999.23 998.42 998.04 998.06 998.40 998.97 999.64 1000.35 1001.03 1001.67 1002.27 1002.86 1003.45 1004.08 1004.72 1005.38 1006.00 1006.54 1006.98 1007.28 1007.44 1007.46 1007.38 1007.22 1007.02 1006.82
1001.05 1001.08 1001.25 1001.65 1002.30 1003.19 1004.26 1005.39 1006.44 1007.23 1007.65 1007.61 1007.06 1006.07 1004.73 1003.21 1001.67 1000.29 999.20 998.49 998.18 998.23 998.59 999.15 999.82 1000.51 1001.19 1001.81 1002.40 1002.95 1003.50 1004.07 1004.65 1005.24 1005.80 1006.31 1006.74 1007.06 1007.25 1007.34 1007.32 1007.22 1007.07 1006.88
1000.26 1000.38 1000.65 1001.11 1001.78 1002.63 1003.61 1004.61 1005.50 1006.17 1006.50 1006.42 1005.93 1005.06 1003.91 1002.61 1001.31 1000.16 999.27 998.71 998.50 998.62 999.00 999.56 1000.21 1000.90 1001.56 1002.17 1002.73 1003.25 1003.76 1004.27 1004.78 1005.29 1005.79 1006.26 1006.66 1006.98 1007.21 1007.34 1007.38 1007.34 1007.23 1007.06
999.70 999.89 1000.22 1000.71 1001.35 1002.11 1002.94 1003.76 1004.46 1004.96 1005.18 1005.07 1004.63 1003.90 1002.95 1001.91 1000.90 1000.02 999.36 998.99 998.91 999.10 999.52 1000.09 1000.74 1001.41 1002.06 1002.66 1003.21 1003.71 1004.18 1004.63 1005.08 1005.53 1005.96 1006.37 1006.73 1007.04 1007.28 1007.44 1007.53 1007.53 1007.46 1007.31
999.41 999.65 1000.02 1000.50 1001.07 1001.71 1002.36 1002.96 1003.44 1003.74 1003.83 1003.66 1003.26 1002.66 1001.93 1001.15 1000.41 999.81 999.40 999.22 999.28 999.57 1000.03 1000.62 1001.28 1001.95 1002.60 1003.20 1003.75 1004.25 1004.70 1005.11 1005.51 1005.90 1006.26 1006.61 1006.93 1007.22 1007.45 1007.63 1007.74 1007.77 1007.72 1007.57
999.38 999.66 1000.03 1000.47 1000.95 1001.44 1001.89 1002.27 1002.52 1002.62 1002.56 1002.33 1001.94 1001.45 1000.89 1000.34 999.86 999.50 999.32 999.33 999.54 999.92 1000.44 1001.07 1001.74 1002.43 1003.10 1003.72 1004.29 1004.79 1005.24 1005.64 1006.00 1006.34 1006.65 1006.94 1007.21 1007.46 1007.68 1007.86 1007.98 1008.02 1007.97 1007.81
999.57 999.83 1000.18 1000.57 1000.95 1001.29 1001.55 1001.71 1001.74 1001.66 1001.45 1001.13 1000.74 1000.32 999.90 999.53 999.26 999.11 999.12 999.30 999.63 1000.10 1000.69 1001.36 1002.08 1002.80 1003.50 1004.16 1004.76 1005.29 1005.75 1006.15 1006.49 1006.78 1007.05 1007.29 1007.52 1007.73 1007.93 1008.09 1008.21 1008.25 1008.19 1008.01
999.86 1000.09 1000.38 1000.69 1000.97 1001.17 1001.26 1001.24 1001.10 1000.85 1000.51 1000.12 999.72 999.33 999.01 998.78 998.66 998.68 998.84 999.15 999.59 1000.15 1000.81 1001.53 1002.29 1003.05 1003.80 1004.50 1005.14 1005.70 1006.18 1006.59 1006.92 1007.19 1007.42 1007.62 1007.81 1008.00 1008.17 1008.32 1008.42 1008.45 1008.39 1008.19
1000.17 1000.30 1000.51 1000.72 1000.89 1000.98 1000.95 1000.80 1000.53 1000.17 999.75 999.31 998.89 998.54 998.28 998.15 998.15 998.29 998.57 998.98 999.51 1000.14 1000.85 1001.62 1002.42 1003.23 1004.01 1004.75 1005.43 1006.03 1006.53 1006.94 1007.26 1007.52 1007.73 1007.90 1008.06 1008.22 1008.38 1008.52 1008.62 1008.65 1008.58 1008.38
1000.40 1000.39 1000.47 1000.58 1000.65 1000.65 1000.54 1000.32 999.99 999.58 999.13 998.68 998.28 997.97 997.77 997.71 997.79 998.02 998.38 998.87 999.47 1000.16 1000.92 1001.73 1002.56 1003.40 1004.21 1004.98 1005.67 1006.28 1006.79 1007.20 1007.52 1007.77 1007.96 1008.12 1008.27 1008.42 1008.57 1008.71 1008.82 1008.87 1008.82 1008.63
1000.52 1000.34 1000.26 1000.25 1000.23 1000.16 1000.02 999.77 999.44 999.05 998.63 998.22 997.87 997.61 997.48 997.49 997.64 997.94 998.38 998.93 999.58 1000.31 1001.10 1001.93 1002.78 1003.62 1004.44 1005.21 1005.90 1006.50 1007.00 1007.40 1007.71 1007.95 1008.13 1008.28 1008.43 1008.59 1008.75 1008.91 1009.05 1009.13 1009.11 1008.97
1000.55 1000.17 999.92 999.77 999.67 999.56 999.41 999.19 998.92 998.59 998.25 997.92 997.65 997.47 997.42 997.50 997.72 998.09 998.58 999.17 999.86 1000.62 1001.43 1002.27 1003.11 1003.94 1004.74 1005.47 1006.13 1006.70 1007.18 1007.55 1007.85 1008.07 1008.26 1008.42 1008.58 1008.76 1008.95 1009.14 1009.32 1009.44 1009.48 1009.40
1000.56 999.96 999.54 999.26 999.07 998.93 998.80 998.64 998.45 998.22 997.99 997.77 997.60 997.52 997.55 997.71 998.00 998.43 998.97 999.61 1000.32 1001.10 1001.91 1002.74 1003.56 1004.35 1005.10 1005.78 1006.39 1006.91 1007.34 1007.68 1007.96 1008.18 1008.37 1008.55 1008.73 1008.94 1009.17 1009.41 1009.63 1009.81 1009.91 1009.90
1000.60 999.81 999.22 998.82 998.57 998.41 998.30 998.20 998.10 997.98 997.86 997.76 997.70 997.71 997.83 998.06 998.42 998.90 999.48 1000.15 1000.89 1001.68 1002.48 1003.29 1004.07 1004.81 1005.49 1006.11 1006.65 1007.11 1007.49 1007.80 1008.06 1008.27 1008.48 1008.68 1008.90 1009.14 1009.41 1009.69 1009.96 1010.20 1010.36 1010.42
1000.70 999.76 999.05 998.55 998.24 998.07 997.99 997.95 997.92 997.90 997.87 997.87 997.90 997.99 998.18 998.47 998.88 999.41 1000.03 1000.73 1001.48 1002.27 1003.07 1003.84 1004.58 1005.27 1005.89 1006.43 1006.91 1007.30 1007.64 1007.92 1008.16 1008.38 1008.59 1008.82 1009.07 1009.35 1009.66 1009.98 1010.28 1010.56 1010.77 1010.90
1000.85 999.82 999.04 998.50 998.16 997.98 997.91 997.91 997.94 997.97 998.01 998.06 998.15 998.30 998.53 998.87 999.32 999.87 1000.52 1001.24 1002.01 1002.80 1003.59 1004.34 1005.04 1005.67 1006.23 1006.72 1007.13 1007.48 1007.77 1008.03 1008.26 1008.48 1008.72 1008.97 1009.25 1009.55 1009.88 1010.22 1010.55 1010.85 1011.09 1011.26
1001.00 999.96 999.18 998.63 998.29 998.12 998.06 998.08 998.12 998.18 998.24 998.31 998.42 998.59 998.84 999.19 999.65 1000.23 1000.89 1001.63 1002.41 1003.21 1003.99 1004.72 1005.39 1005.99 1006.51 1006.95 1007.32 1007.63 1007.90 1008.13 1008.36 1008.59 1008.84 1009.11 1009.40 1009.73 1010.06 1010.40 1010.73 1011.03 1011.29 1011.47
Thickness
5850 5833 5825 5837 5846 5845 5842 5836 5833 5844 5860 5853 5841 5836 5843 5849 5847 5841 5838 5835 5833 5831 5833 5833 5832 5830 5825 5820 5816 5812 5809 5807 5804 5800 5797 5794 5793 5794 5795 5795 5794 5792 5790 5789
5833 5827 5845 5857 5857 5852 5843 5831 5833 5845 5860 5852 5841 5838 5846 5848 5847 5846 5842 5838 5834 5831 5831 5830 5829 5827 5823 5819 5815 5811 5808 5806 5804 5801 5798 5796 5795 5794 5794 5793 5792 5791 5789 5788
5825 5842 5858 5852 5848 5843 5840 5837 5837 5840 5852 5854 5841 5828 5835 5846 5851 5851 5850 5846 5841 5835 5829 5826 5824 5824 5822 5818 5814 5812 5808 5806 5803 5802 5799 5797 5794 5792 5790 5789 5789 5789 5789 5787
5837 5854 5853 5848 5845 5844 5833 5853 5849 5842 5832 5826 5833 5805 5821 5837 5839 5843 5846 5845 5842 5840 5835 5830 5827 5823 5822 5820 5818 5813 5809 5805 5803 5801 5797 5793 5789 5786 5787 5788 5788 5788 5788 5786
5835 5849 5848 5842 5848 5851 5844 5858 5850 5844 5833 5821 5827 5812 5815 5833 5827 5835 5842 5844 5842 5841 5838 5833 5830 5826 5825 5823 5819 5814 5809 5805 5802 5800 5797 5793 5790 5789 5789 5788 5786 5785 5785 5784
5845 5861 5860 5855 5862 5861 5857 5849 5843 5839 5828 5804 5820 5813 5808 5825 5830 5835 5841 5844 5843 5842 5839 5835 5832 5829 5825 5824 5820 5815 5808 5803 5802 5799 5796 5793 5789 5787 5785 5784 5783 5783 5783 5782
5829 5846 5861 5865 5849 5852 5847 5825 5802 5794 5795 5799 5830 5819 5816 5839 5845 5842 5839 5841 5843 5842 5839 5834 5828 5824 5822 5821 5818 5814 5807 5802 5800 5798 5795 5793 5790 5787 5785 5783 5782 5781 5779 5778
5810 5817 5846 5855 5845 5836 5836 5826 5797 5781 5790 5805 5822 5812 5821 5845 5851 5849 5845 5842 5840 5838 5837 5833 5828 5824 5821 5819 5817 5813 5807 5802 5800 5797 5794 5792 5789 5787 5785 5783 5782 5781 5779 5778
5816 5818 5853 5859 5860 5849 5831 5829 5840 5819 5807 5796 5804 5814 5826 5842 5840 5840 5838 5836 5832 5834 5835 5832 5829 5825 5821 5818 5816 5812 5807 5802 5799 5796 5793 5790 5788 5786 5784 5783 5782 5780 5778 5778
5831 5816 5837 5853 5856 5853 5850 5842 5831 5813 5786 5779 5793 5801 5803 5818 5821 5828 5829 5828 5829 5831 5831 5831 5828 5824 5822 5819 5815 5812 5806 5802 5798 5795 5791 5789 5786 5784 5783 5781 5778 5777 5775 5775
5838 5818 5822 5834 5829 5827 5835 5831 5822 5814 5808 5786 5775 5788 5823 5823 5826 5825 5828 5829 5827 5827 5826 5825 5823 5821 5820 5817 5814 5809 5802 5798 5795 5792 5788 5787 5784 5782 5780 5778 5776 5774 5772 5770
5834 5822 5808 5821 5843 5850 5841 5833 5824 5797 5794 5801 5789 5791 5832 5831 5830 5827 5825 5826 5827 5826 5825 5822 5819 5816 5815 5812 5810 5805 5800 5796 5792 5789 5785 5783 5781 5779 5776 5773 5772 5770 5768 5767
5825 5810 5792 5798 5816 5831 5828 5832 5831 5824 5811 5798 5785 5790 5826 5827 5824 5826 5822 5821 5820 5820 5820 5818 5814 5810 5807 5805 5803 5801 5797 5793 5790 5786 5782 5779 5776 5773 5771 5769 5768 5766 5764 5762
5824 5806 5795 5784 5797 5814 5814 5821 5827 5818 5800 5793 5796 5797 5809 5811 5811 5816 5817 5815 5813 5813 5813 5810 5807 5804 5801 5799 5797 5795 5793 5790 5787 5782 5778 5773 5771 5769 5767 5765 5763 5761 5760 5758
5820 5800 5802 5807 5817 5819 5816 5815 5818 5814 5809 5798 5801 5800 5803 5805 5806 5810 5810 5809 5807 5804 5804 5802 5800 5796 5793 5793 5791 5789 5786 5784 5781 5776 5772 5769 5768 5766 5763 5760 5758 5756 5755 5754
5811 5793 5794 5795 5807 5811 5808 5814 5813 5812 5812 5808 5805 5799 5810 5811 5807 5804 5804 5803 5799 5798 5797 5797 5795 5792 5789 5786 5784 5782 5780 5778 5775 5771 5768 5765 5763 5760 5757 5755 5753 5750 5749 5748
5798 5786 5777 5777 5796 5797 5788 5806 5810 5809 5812 5808 5795 5796 5806 5800 5795 5796 5798 5797 5795 5794 5793 5792 5790 5787 5785 5783 5780 5776 5775 5773 5769 5765 5762 5760 5758 5755 5752 5750 5747 5744 5742 5741
5788 5779 5775 5774 5775 5756 5792 5820 5817 5809 5808 5809 5803 5802 5801 5797 5797 5799 5797 5792 5789 5789 5787 5786 5785 5782 5781 5779 5776 5773 5770 5767 5763 5759 5756 5754 5751 5748 5746 5743 5740 5738 5737 5735
5797 5780 5770 5766 5759 5768 5791 5806 5807 5797 5792 5804 5799 5797 5798 5800 5793 5788 5792 5790 5786 5785 5784 5782 5781 5778 5775 5772 5770 5766 5762 5759 5756 5753 5750 5748 5745 5742 5739 5736 5734 5733 5730 5729
5790 5782 5765 5758 5746 5746 5773 5798 5808 5798 5775 5794 5795 5789 5789 5786 5767 5765 5779 5780 5779 5779 5777 5775 5773 5770 5766 5764 5762 5758 5754 5751 5748 5746 5745 5742 5739 5736 5733 5731 5729 5727 5725 5723
5762 5760 5754 5751 5746 5758 5778 5791 5791 5761 5759 5785 5787 5782 5779 5771 5767 5770 5774 5771 5770 5769 5767 5765 5762 5758 5756 5755 5752 5747 5745 5743 5742 5741 5739 5736 5733 5730 5728 5726 5724 5721 5719 5717
5752 5750 5747 5748 5739 5742 5775 5776 5763 5761 5775 5778 5777 5775 5772 5769 5768 5766 5764 5762 5760 5758 5756 5754 5750 5747 5747 5745 5742 5738 5736 5737 5736 5734 5731 5728 5726 5724 5723 5719 5716 5714 5712 5709
5754 5754 5752 5747 5744 5760 5770 5767 5769 5771 5767 5767 5767 5768 5766 5760 5757 5756 5754 5752 5750 5748 5746 5745 5741 5738 5737 5736 5733 5729 5728 5728 5726 5724 5721 5720 5718 5717 5715 5712 5709 5707 5705 5702
5750 5756 5749 5742 5748 5756 5763 5764 5764 5764 5760 5761 5761 5761 5758 5752 5750 5747 5744 5742 5739 5737 5736 5735 5732 5728 5726 5725 5724 5722 5721 5719 5716 5714 5712 5711 5709 5708 5707 5704 5703 5700 5698 5695
5736 5735 5734 5732 5741 5747 5749 5751 5752 5754 5755 5754 5755 5754 5751 5747 5742 5738 5734 5732 5730 5727 5727 5725 5721 5719 5717 5716 5715 5714 5713 5711 5707 5704 5702 5701 5701 5699 5697 5696 5694 5693 5691 5689
5729 5724 5719 5718 5729 5730 5731 5740 5743 5742 5742 5742 5743 5741 5742 5739 5733 5729 5725 5723 5721 5718 5717 5715 5713 5711 5709 5708 5707 5706 5705 5702 5698 5695 5693 5693 5692 5690 5688 5687 5685 5684 5683 5681